Date String (YYYY-MM-DD hh:mm:ss) UTC,Instrument flags,absolute air pressure of the measurement (hPa),sample flow rate (lpm),inlet stack bypass flow (lpm),air temperature of the measurement (°C),ambient temperature measured by the external sensor (°C),aerosol sample conditioner tube jacket temperature (°C),OPC LED temperature (°C),internal box temperature (°C),relative humidity of the measurement (%),span deviation,mass concentration of particles derived from Lorenz-Mie calculation of OPC scattering (μg/m³),mass concentration of particles derived from Lorenz-Mie calculation of OPC scattering (μg/m³),mass concentration of particles derived from Lorenz-Mie calculation of OPC scattering (μg/m³)
DateTimeUTC,F1_M11,P_M11,Q1_M11,Q2_M11,T1_M11,T2_M11,T3_M11,T4_M11,T5_M11,U1_M11,ZSPAN_M11,X0_M11,X2_M11,X1_M11
2024-05-23 12:00:00,SystemResetWarning,0819.4,4.99,000.00,027.6,026.8,000.0,036.0,029.3,011.4,0000.0,0010.84,0003.70,0002.73
2024-05-23 12:01:00,SystemResetWarning,0819.4,5.00,000.00,027.6,026.8,000.0,036.0,029.3,011.4,0000.0,0010.99,0003.69,0002.73
2024-05-23 12:02:00,SystemResetWarning,0819.3,5.00,000.00,027.6,026.8,000.0,036.0,029.3,011.2,0000.0,0010.64,0003.71,0002.74
2024-05-23 12:03:00,SystemResetWarning,0819.4,5.01,000.00,027.6,026.8,000.0,036.0,029.3,011.1,0000.0,0010.41,0003.72,0002.73
2024-05-23 12:04:00,SystemResetWarning,0819.4,5.01,000.00,027.6,026.8,000.0,036.0,029.3,011.1,0000.0,0011.29,0003.68,0002.73
2024-05-23 12:05:00,SystemResetWarning,0819.5,5.00,000.00,027.6,026.7,000.0,036.0,029.3,011.1,0000.0,0011.05,0003.66,0002.74
2024-05-23 12:06:00,SystemResetWarning,0819.5,5.00,000.00,027.6,026.8,000.0,035.9,029.3,011.1,0000.0,0010.82,0003.63,0002.74
2024-05-23 12:07:00,SystemResetWarning,0819.4,5.00,000.00,027.6,026.7,000.0,035.9,029.3,011.1,0000.0,0010.72,0003.61,0002.73
2024-05-23 12:08:00,SystemResetWarning,0819.5,5.00,000.00,027.6,026.7,000.0,035.9,029.3,011.1,0000.0,0010.44,0003.61,0002.74
2024-05-23 12:09:00,SystemResetWarning,0819.5,4.99,000.00,027.6,026.7,000.0,035.9,029.3,011.1,0000.0,0010.18,0003.61,0002.72
2024-05-23 12:10:00,SystemResetWarning,0819.5,5.01,000.00,027.5,026.7,000.0,035.9,029.3,011.0,0000.0,0010.43,0003.61,0002.71
2024-05-23 12:11:00,SystemResetWarning,0819.5,5.01,000.00,027.5,026.7,000.0,035.9,029.3,010.9,0000.0,0010.38,0003.58,0002.68
2024-05-23 12:12:00,SystemResetWarning,0819.4,5.00,000.00,027.5,026.7,000.0,035.9,029.3,011.1,0000.0,0010.35,0003.62,0002.68
2024-05-23 12:13:00,SystemResetWarning,0819.4,4.99,000.00,027.5,026.7,000.0,035.9,029.2,011.1,0000.0,0010.22,0003.59,0002.67
2024-05-23 12:14:00,SystemResetWarning,0819.4,5.00,000.00,027.5,026.7,000.0,035.9,029.2,011.1,0000.0,0010.13,0003.52,0002.67
2024-05-23 12:15:00,SystemResetWarning,0819.4,5.00,000.00,027.5,026.7,000.0,035.9,029.3,011.0,0000.0,0008.76,0003.49,0002.66
2024-05-23 12:16:00,SystemResetWarning,0819.4,5.00,000.00,027.5,026.7,000.0,035.9,029.3,011.0,0000.0,0008.49,0003.46,0002.63
2024-05-23 12:17:00,SystemResetWarning,0819.7,5.00,000.00,027.5,026.7,000.0,035.9,029.3,011.4,0000.0,0008.74,0003.45,0002.60
2024-05-23 12:18:00,SystemResetWarning,0819.6,5.00,000.00,027.5,026.7,000.0,035.9,029.3,011.9,0000.0,0008.85,0003.47,0002.61
2024-05-23 12:19:00,SystemResetWarning,0819.7,5.01,000.00,027.5,026.7,000.0,035.9,029.3,011.6,0000.0,0009.25,0003.48,0002.60
2024-05-23 12:20:00,SystemResetWarning,0819.6,5.00,000.00,027.5,026.7,000.0,035.9,029.3,011.8,0000.0,0009.16,0003.43,0002.60
2024-05-23 12:21:00,SystemResetWarning,0819.7,5.00,000.00,027.5,026.7,000.0,035.9,029.3,011.7,0000.0,0009.23,0003.46,0002.62
2024-05-23 12:22:00,SystemResetWarning,0819.5,4.99,000.00,027.5,026.8,000.0,035.9,029.3,011.8,0000.0,0008.74,0003.50,0002.64
2024-05-23 12:23:00,SystemResetWarning,0819.5,5.00,000.00,027.5,026.8,000.0,035.9,029.3,011.5,0000.0,0008.23,0003.49,0002.65
2024-05-23 12:24:00,SystemResetWarning,0819.5,5.00,000.00,027.6,026.8,000.0,035.9,029.3,011.0,0000.0,0008.33,0003.49,0002.65
2024-05-23 12:25:00,SystemResetWarning,0819.5,5.00,000.00,027.6,026.8,000.0,035.9,029.3,011.1,0000.0,0008.93,0003.54,0002.64
2024-05-23 12:26:00,SystemResetWarning,0819.5,4.99,000.00,027.6,026.8,000.0,035.9,029.3,011.3,0000.0,0009.13,0003.58,0002.64
2024-05-23 12:27:00,SystemResetWarning,0819.5,5.01,000.00,027.6,026.8,000.0,035.9,029.3,011.5,0000.0,0009.20,0003.59,0002.64
2024-05-23 12:28:00,SystemResetWarning,0819.5,5.01,000.00,027.6,026.8,000.0,035.9,029.4,011.1,0000.0,0009.01,0003.62,0002.65
2024-05-23 12:29:00,SystemResetWarning,0819.5,4.99,000.00,027.6,026.8,000.0,035.9,029.4,011.0,0000.0,0009.43,0003.61,0002.66
2024-05-23 12:30:00,SystemResetWarning,0819.5,4.99,000.00,027.6,026.8,000.0,035.9,029.3,011.0,0000.0,0009.02,0003.63,0002.66
2024-05-23 12:31:00,SystemResetWarning,0819.5,5.01,000.00,027.6,026.8,000.0,035.9,029.3,010.9,0000.0,0009.04,0003.65,0002.66
2024-05-23 12:32:00,SystemResetWarning,0819.5,5.01,000.00,027.6,026.8,000.0,035.9,029.3,010.7,0000.0,0009.10,0003.67,0002.65
2024-05-23 12:33:00,SystemResetWarning,0819.5,4.99,000.00,027.6,026.8,000.0,035.9,029.4,010.3,0000.0,0010.39,0003.69,0002.63
2024-05-23 12:34:00,SystemResetWarning,0819.5,4.99,000.00,027.6,026.8,000.0,035.9,029.3,010.3,0000.0,0010.38,0003.68,0002.60
2024-05-23 12:35:00,SystemResetWarning,0819.4,5.00,000.00,027.6,026.8,000.0,035.9,029.3,010.5,0000.0,0010.30,0003.66,0002.59
2024-05-23 12:36:00,SystemResetWarning,0819.4,5.00,000.00,027.6,026.8,000.0,035.9,029.3,010.5,0000.0,0010.48,0003.64,0002.58
2024-05-23 12:37:00,SystemResetWarning,0819.5,5.00,000.00,027.6,026.8,000.0,035.9,029.3,010.6,0000.0,0010.10,0003.66,0002.57
2024-05-23 12:38:00,SystemResetWarning,0819.5,4.99,000.00,027.6,026.8,000.0,035.9,029.3,010.5,0000.0,0010.27,0003.64,0002.56
2024-05-23 12:39:00,SystemResetWarning,0819.5,5.00,000.00,027.6,026.8,000.0,035.9,029.4,010.8,0000.0,0010.69,0003.66,0002.56
2024-05-23 12:40:00,SystemResetWarning,0819.5,5.00,000.00,027.6,026.8,000.0,035.9,029.4,011.0,0000.0,0010.24,0003.70,0002.59
2024-05-23 12:41:00,SystemResetWarning,0819.4,5.00,000.00,027.6,026.8,000.0,035.9,029.4,011.0,0000.0,0010.20,0003.69,0002.60
2024-05-23 12:42:00,SystemResetWarning,0819.4,5.00,000.00,027.6,026.8,000.0,035.9,029.4,010.7,0000.0,0010.25,0003.71,0002.63
2024-05-23 12:43:00,SystemResetWarning,0819.4,5.00,000.00,027.6,026.8,000.0,035.9,029.4,010.5,0000.0,0010.20,0003.70,0002.62
2024-05-23 12:44:00,SystemResetWarning,0819.4,5.00,000.00,027.6,026.8,000.0,035.9,029.4,010.5,0000.0,0008.84,0003.65,0002.62
2024-05-23 12:45:00,SystemResetWarning,0819.5,5.00,000.00,027.6,026.9,000.0,035.9,029.4,010.6,0000.0,0008.75,0003.64,0002.61
2024-05-23 12:46:00,SystemResetWarning,0819.5,4.99,000.00,027.6,026.9,000.0,035.9,029.4,010.6,0000.0,0009.40,0003.63,0002.59
2024-05-23 12:47:00,SystemResetWarning,0819.5,5.00,000.00,027.6,026.9,000.0,035.9,029.4,011.0,0000.0,0008.79,0003.64,0002.59
2024-05-23 12:48:00,SystemResetWarning,0819.6,5.00,000.00,027.6,026.9,000.0,035.9,029.4,011.2,0000.0,0008.68,0003.61,0002.58
2024-05-23 12:49:00,SystemResetWarning,0819.6,5.00,000.00,027.6,026.9,000.0,035.9,029.4,012.1,0000.0,0009.17,0003.64,0002.60
2024-05-23 12:50:00,SystemResetWarning,0819.6,5.00,000.00,027.7,026.9,000.0,035.9,029.4,011.9,0000.0,0008.89,0003.64,0002.62
2024-05-23 12:51:00,SystemResetWarning,0819.7,5.00,000.00,027.6,026.9,000.0,035.9,029.4,011.1,0000.0,0008.73,0003.59,0002.60
2024-05-23 12:52:00,SystemResetWarning,0819.7,5.00,000.00,027.6,026.9,000.0,035.9,029.4,011.1,0000.0,0008.68,0003.57,0002.58
2024-05-23 12:53:00,SystemResetWarning,0819.9,5.00,000.00,027.6,026.9,000.0,035.9,029.4,011.3,0000.0,0009.29,0003.55,0002.57
2024-05-23 12:54:00,SystemResetWarning,0819.6,5.00,000.00,027.6,026.8,000.0,035.9,029.4,011.3,0000.0,0009.84,0003.59,0002.58
2024-05-23 12:55:00,SystemResetWarning,0819.4,5.00,000.00,027.6,026.8,000.0,035.9,029.4,011.3,0000.0,0010.51,0003.60,0002.59
2024-05-23 12:56:00,SystemResetWarning,0819.4,5.00,000.00,027.6,026.8,000.0,035.9,029.4,011.5,0000.0,0011.86,0003.65,0002.61
2024-05-23 12:57:00,SystemResetWarning,0819.4,5.00,000.00,027.6,026.8,000.0,035.9,029.4,011.6,0000.0,0011.78,0003.69,0002.63
2024-05-23 12:58:00,SystemResetWarning,0819.4,5.00,000.00,027.6,026.8,000.0,035.9,029.4,011.7,0000.0,0012.13,0003.69,0002.65
2024-05-23 12:59:00,SystemResetWarning,0819.5,5.00,000.00,027.6,026.8,000.0,035.9,029.4,012.3,0000.0,0012.43,0003.73,0002.67
